This is the latest recevied weather packets stored in our database for station/object KC1BRV. If no packets are shown the sender has not sent any weather packets the latest 10 day(s).
| Time | Temp. | Humidity | Pressure | Rain* | Wind** | Luminosity | Snow |
|---|---|---|---|---|---|---|---|
| 1788632269 | 20.56° C | 87% | 1011.1 hPa | 0 mm | - | 104 W/m² | - |
| 1788631969 | 20.56° C | 87% | 1011.2 hPa | 0 mm | - | 168 W/m² | - |
| 1788631668 | 21.67° C | 88% | 1011.3 hPa | 0 mm | - | 222 W/m² | - |
| 1788631363 | 21.67° C | 89% | 1011.3 hPa | 0 mm | - | 228 W/m² | - |
| 1788631058 | 21.11° C | 88% | 1011.2 hPa | 0 mm | - | 240 W/m² | - |
| 1788630753 | 21.11° C | 91% | 1011.2 hPa | 0 mm | - | 269 W/m² | - |
| 1788630448 | 20.56° C | 93% | 1011.2 hPa | 0 mm | - | 297 W/m² | - |
| 1788630144 | 20° C | 92% | 1011.3 hPa | 0 mm | - | 264 W/m² | - |
| 1788629834 | 20° C | 90% | 1011 hPa | 0 mm | - | 223 W/m² | - |
| 1788629558 | 20° C | 89% | 1011 hPa | 0 mm | - | 168 W/m² | - |
| 1788629229 | 20.56° C | 86% | 1011.1 hPa | 10.67 mm | - | 96 W/m² | - |
| 1788628923 | 21.11° C | 82% | 1011.2 hPa | 6.1 mm | - | 36 W/m² | - |
| 1788628619 | 21.67° C | 75% | 1010.9 hPa | 0 mm | - | 22 W/m² | - |
| 1788628315 | 22.22° C | 74% | 1010.8 hPa | 0 mm | - | 41 W/m² | - |
| 1788628012 | 22.78° C | 74% | 1010.8 hPa | 0 mm | - | 80 W/m² | - |
| 1788627706 | 22.78° C | 73% | 1010.9 hPa | 0 mm | - | 115 W/m² | - |
| 1788627406 | 22.78° C | 72% | 1011.1 hPa | 0 mm | - | 158 W/m² | - |
| 1788627102 | 22.22° C | 72% | 1010.8 hPa | 0 mm | - | 177 W/m² | - |
| 1788626802 | 22.22° C | 72% | 1010.7 hPa | 0 mm | - | 188 W/m² | - |
| 1788626501 | 22.22° C | 72% | 1010.6 hPa | 0 mm | - | 214 W/m² | - |
| 1788626197 | 22.22° C | 73% | 1010.6 hPa | 0 mm | - | 252 W/m² | - |
| 1788625894 | 22.22° C | 73% | 1010.7 hPa | 0 mm | - | 194 W/m² | - |
| 1788625590 | 22.78° C | 73% | 1010.7 hPa | 0 mm | - | 130 W/m² | - |
| 1788625289 | 22.78° C | 70% | 1010.6 hPa | 0 mm | - | 114 W/m² | - |
| 1788624988 | 23.33° C | 68% | 1010.8 hPa | 0 mm | - | 172 W/m² | - |
* Rain latest hour (hover to see other rain measurements)
** Current wind speed in m/s (hover to see current wind gust speed)